PUA2603 SUMU-SAEZ

Flight info

Callsign PUA2603
Flight time 0h 36m
Altitude 16000
Route DAGUS DCT UGIMI UGIMI7B
Aircraft A339/H-SADE1E2E3GHIJ3J5M1P2RWXY/LB2D1

Departure

Time 2026-04-28 04:25
Airport Carrasco General Cesáreo L. Berisso International Airport (SUMU)

Arrival

Time 2026-04-28 05:02
Airport Ezeiza International Airport - Ministro Pistarini (SAEZ)
Time Latitude Longitude Altitude Speed Heading
2026-04-28 04:10 -34.83542 -56.01659 88 ft 0 kts 143°
2026-04-28 04:17 -34.83534 -56.01667 88 ft 2 kts 143°
2026-04-28 04:17 -34.83522 -56.01678 89 ft 2 kts 143°
2026-04-28 04:17 -34.83510 -56.01688 89 ft 2 kts 143°
2026-04-28 04:18 -34.83498 -56.01699 90 ft 2 kts 148°
2026-04-28 04:18 -34.83484 -56.01706 90 ft 2 kts 177°
2026-04-28 04:18 -34.83469 -56.01704 90 ft 2 kts 199°
2026-04-28 04:18 -34.83456 -56.01696 91 ft 2 kts 222°
2026-04-28 04:19 -34.83450 -56.01688 91 ft 1 kts 234°
2026-04-28 04:19 -34.83448 -56.01685 91 ft 0 kts 233°
2026-04-28 04:19 -34.83449 -56.01685 91 ft 0 kts 233°
2026-04-28 04:20 -34.83451 -56.01689 91 ft 2 kts 233°
2026-04-28 04:20 -34.83476 -56.01731 90 ft 8 kts 233°
2026-04-28 04:21 -34.83518 -56.01800 89 ft 12 kts 234°
2026-04-28 04:21 -34.83576 -56.01899 85 ft 16 kts 234°
2026-04-28 04:21 -34.83648 -56.02014 83 ft 17 kts 231°
2026-04-28 04:21 -34.83727 -56.02140 80 ft 19 kts 233°
2026-04-28 04:22 -34.83823 -56.02234 77 ft 17 kts 179°
2026-04-28 04:22 -34.83921 -56.02254 73 ft 13 kts 220°
2026-04-28 04:22 -34.83940 -56.02359 72 ft 13 kts 265°
2026-04-28 04:22 -34.83946 -56.02477 72 ft 14 kts 269°
2026-04-28 04:23 -34.83947 -56.02600 72 ft 15 kts 265°
2026-04-28 04:23 -34.83980 -56.02726 70 ft 16 kts 242°
2026-04-28 04:23 -34.84012 -56.02863 69 ft 17 kts 268°
2026-04-28 04:23 -34.84016 -56.03003 69 ft 16 kts 260°
2026-04-28 04:24 -34.84105 -56.03054 64 ft 16 kts 151°
2026-04-28 04:24 -34.84165 -56.03031 63 ft 3 kts 217°
2026-04-28 04:24 -34.84154 -56.03055 63 ft 4 kts 329°
2026-04-28 04:24 -34.84057 -56.03077 66 ft 35 kts 358°
2026-04-28 04:25 -34.83570 -56.03088 74 ft 101 kts 359°
2026-04-28 04:25 -34.82674 -56.03093 59 ft 156 kts 358°
2026-04-28 04:25 -34.81528 -56.03071 538 ft 165 kts
2026-04-28 04:25 -34.80406 -56.03056 1275 ft 159 kts 355°
2026-04-28 04:26 -34.79330 -56.03121 1935 ft 156 kts 345°
2026-04-28 04:26 -34.78393 -56.03760 2272 ft 162 kts 302°
2026-04-28 04:26 -34.78138 -56.05110 2590 ft 176 kts 258°
2026-04-28 04:26 -34.78502 -56.06607 2938 ft 194 kts 254°
2026-04-28 04:27 -34.78910 -56.08217 3308 ft 211 kts 254°
2026-04-28 04:27 -34.79354 -56.09992 3704 ft 229 kts 254°
2026-04-28 04:27 -34.79828 -56.11911 4086 ft 246 kts 254°
2026-04-28 04:27 -34.80327 -56.13937 4738 ft 254 kts 254°
2026-04-28 04:28 -34.80827 -56.15974 5528 ft 256 kts 254°
2026-04-28 04:28 -34.81334 -56.18038 6315 ft 258 kts 254°
2026-04-28 04:28 -34.81847 -56.20132 7062 ft 261 kts 255°
2026-04-28 04:28 -34.82356 -56.22226 7853 ft 262 kts 254°
2026-04-28 04:29 -34.82867 -56.24326 8619 ft 265 kts 254°
2026-04-28 04:29 -34.83389 -56.26471 9414 ft 266 kts 254°
2026-04-28 04:29 -34.83911 -56.28619 10218 ft 267 kts 253°
2026-04-28 04:29 -34.84443 -56.30800 10724 ft 278 kts 254°
2026-04-28 04:30 -34.85001 -56.33094 11016 ft 296 kts 254°
2026-04-28 04:30 -34.85600 -56.35560 11322 ft 313 kts 254°
2026-04-28 04:30 -34.86234 -56.38176 11824 ft 325 kts 254°
2026-04-28 04:30 -34.86865 -56.40776 12552 ft 327 kts 254°
2026-04-28 04:31 -34.87511 -56.43450 13312 ft 329 kts 254°
2026-04-28 04:31 -34.88157 -56.46122 14029 ft 332 kts 254°
2026-04-28 04:31 -34.88804 -56.48799 14785 ft 334 kts 254°
2026-04-28 04:31 -34.89455 -56.51502 15479 ft 336 kts 254°
2026-04-28 04:32 -34.90105 -56.54201 15884 ft 337 kts 254°
2026-04-28 04:32 -34.90765 -56.56944 16036 ft 337 kts 254°
2026-04-28 04:32 -34.91414 -56.59646 16045 ft 337 kts 254°
2026-04-28 04:32 -34.92074 -56.62397 16046 ft 336 kts 254°
2026-04-28 04:33 -34.92725 -56.65114 16044 ft 336 kts 255°
2026-04-28 04:33 -34.93375 -56.67831 16049 ft 337 kts 255°
2026-04-28 04:33 -34.94017 -56.70512 16041 ft 337 kts 255°
2026-04-28 04:33 -34.94656 -56.73183 16034 ft 336 kts 255°
2026-04-28 04:34 -34.95303 -56.75893 16044 ft 336 kts 255°
2026-04-28 04:34 -34.95953 -56.78624 16044 ft 336 kts 255°
2026-04-28 04:34 -34.96593 -56.81313 16062 ft 336 kts 254°
2026-04-28 04:34 -34.97243 -56.84048 16051 ft 335 kts 255°
2026-04-28 04:35 -34.97778 -56.86785 16052 ft 336 kts 259°
2026-04-28 04:35 -34.98116 -56.89595 16047 ft 336 kts 264°
2026-04-28 04:35 -34.98252 -56.92394 16053 ft 336 kts 268°
2026-04-28 04:35 -34.98254 -56.95263 16049 ft 336 kts 269°
2026-04-28 04:36 -34.98241 -56.98093 16055 ft 337 kts 269°
2026-04-28 04:36 -34.98227 -57.00927 16047 ft 337 kts 269°
2026-04-28 04:36 -34.98213 -57.03769 16061 ft 337 kts 269°
2026-04-28 04:36 -34.98200 -57.06617 16052 ft 337 kts 269°
2026-04-28 04:37 -34.98187 -57.09430 16048 ft 337 kts 269°
2026-04-28 04:37 -34.98174 -57.12266 16042 ft 338 kts 269°
2026-04-28 04:37 -34.98162 -57.15093 16050 ft 338 kts 269°
2026-04-28 04:37 -34.98148 -57.17921 16057 ft 338 kts 269°
2026-04-28 04:38 -34.98134 -57.20791 16054 ft 338 kts 269°
2026-04-28 04:38 -34.98118 -57.23581 16058 ft 338 kts 269°
2026-04-28 04:38 -34.98102 -57.26458 16056 ft 338 kts 269°
2026-04-28 04:38 -34.98086 -57.29278 16057 ft 337 kts 269°
2026-04-28 04:39 -34.98069 -57.32131 16057 ft 337 kts 269°
2026-04-28 04:39 -34.98052 -57.34951 16059 ft 337 kts 269°
2026-04-28 04:39 -34.98034 -57.37823 16059 ft 337 kts 269°
2026-04-28 04:39 -34.98014 -57.40668 16067 ft 337 kts 269°
2026-04-28 04:40 -34.97994 -57.43544 16055 ft 337 kts 269°
2026-04-28 04:40 -34.97974 -57.46378 16048 ft 338 kts 269°
2026-04-28 04:40 -34.97953 -57.49222 16058 ft 338 kts 269°
2026-04-28 04:40 -34.97932 -57.52072 16065 ft 337 kts 269°
2026-04-28 04:41 -34.97909 -57.54932 16066 ft 337 kts 269°
2026-04-28 04:41 -34.97886 -57.57806 16057 ft 338 kts 269°
2026-04-28 04:41 -34.97861 -57.60670 16066 ft 338 kts 269°
2026-04-28 04:41 -34.97837 -57.63523 16059 ft 338 kts 269°
2026-04-28 04:42 -34.97812 -57.66401 15983 ft 339 kts 270°
2026-04-28 04:42 -34.97786 -57.69257 15755 ft 338 kts 270°
2026-04-28 04:42 -34.97760 -57.72070 15456 ft 336 kts 270°
2026-04-28 04:42 -34.97733 -57.74930 15097 ft 334 kts 270°
2026-04-28 04:43 -34.97706 -57.77720 14729 ft 333 kts 270°
2026-04-28 04:43 -34.97677 -57.80550 14352 ft 331 kts 269°
2026-04-28 04:43 -34.97648 -57.83309 13978 ft 330 kts 269°
2026-04-28 04:43 -34.97619 -57.86124 13599 ft 328 kts 269°
2026-04-28 04:44 -34.97485 -57.88866 13251 ft 326 kts 275°
2026-04-28 04:44 -34.97123 -57.91560 12900 ft 325 kts 281°
2026-04-28 04:44 -34.96554 -57.94222 12550 ft 323 kts 283°
2026-04-28 04:44 -34.95933 -57.96869 12200 ft 321 kts 284°
2026-04-28 04:45 -34.95322 -57.99444 11843 ft 320 kts 284°
2026-04-28 04:45 -34.94699 -58.02065 11470 ft 318 kts 284°
2026-04-28 04:45 -34.94081 -58.04671 11095 ft 317 kts 284°
2026-04-28 04:45 -34.93473 -58.07232 10718 ft 316 kts 284°
2026-04-28 04:46 -34.92862 -58.09813 10345 ft 315 kts 284°
2026-04-28 04:46 -34.92260 -58.12340 10233 ft 304 kts 284°
2026-04-28 04:46 -34.91684 -58.14760 10193 ft 292 kts 284°
2026-04-28 04:46 -34.91136 -58.17057 10100 ft 272 kts 284°
2026-04-28 04:47 -34.90627 -58.19188 10110 ft 259 kts 284°
2026-04-28 04:47 -34.90128 -58.21282 10017 ft 257 kts 283°
2026-04-28 04:47 -34.89632 -58.23370 9712 ft 258 kts 284°
2026-04-28 04:47 -34.89133 -58.25470 9432 ft 257 kts 283°
2026-04-28 04:48 -34.88638 -58.27551 9164 ft 256 kts 284°
2026-04-28 04:48 -34.88145 -58.29617 8900 ft 255 kts 284°
2026-04-28 04:48 -34.87653 -58.31679 8649 ft 253 kts 284°
2026-04-28 04:48 -34.87162 -58.33734 8390 ft 252 kts 284°
2026-04-28 04:49 -34.86678 -58.35754 8143 ft 251 kts 284°
2026-04-28 04:49 -34.86190 -58.37789 7891 ft 250 kts 284°
2026-04-28 04:49 -34.85704 -58.39815 7634 ft 250 kts 284°
2026-04-28 04:49 -34.85218 -58.41839 7382 ft 248 kts 284°
2026-04-28 04:50 -34.84729 -58.43875 7121 ft 247 kts 283°
2026-04-28 04:50 -34.84253 -58.45855 6879 ft 245 kts 283°
2026-04-28 04:50 -34.83772 -58.47852 6641 ft 244 kts 283°
2026-04-28 04:50 -34.83300 -58.49810 6412 ft 242 kts 283°
2026-04-28 04:51 -34.82829 -58.51770 6181 ft 240 kts 283°
2026-04-28 04:51 -34.82382 -58.53720 5936 ft 239 kts 281°
2026-04-28 04:51 -34.82026 -58.55681 5699 ft 237 kts 280°
2026-04-28 04:51 -34.81691 -58.57630 5464 ft 238 kts 277°
2026-04-28 04:52 -34.81637 -58.59695 5235 ft 248 kts 265°
2026-04-28 04:52 -34.81786 -58.61784 5005 ft 249 kts 263°
2026-04-28 04:52 -34.81977 -58.63893 4768 ft 248 kts 263°
2026-04-28 04:52 -34.82176 -58.65968 4540 ft 248 kts 263°
2026-04-28 04:53 -34.82379 -58.68049 4309 ft 247 kts 263°
2026-04-28 04:53 -34.82581 -58.70127 4077 ft 246 kts 265°
2026-04-28 04:53 -34.82724 -58.72197 3857 ft 246 kts 266°
2026-04-28 04:53 -34.82844 -58.74280 3655 ft 246 kts 266°
2026-04-28 04:54 -34.82935 -58.76340 3452 ft 245 kts 270°
2026-04-28 04:54 -34.82903 -58.78415 3245 ft 245 kts 272°
2026-04-28 04:54 -34.82819 -58.80491 3042 ft 244 kts 273°
2026-04-28 04:54 -34.82726 -58.82532 2973 ft 244 kts 275°
2026-04-28 04:55 -34.82432 -58.84571 2970 ft 245 kts 284°
2026-04-28 04:55 -34.81948 -58.86572 2968 ft 244 kts 287°
2026-04-28 04:55 -34.81437 -58.88520 2969 ft 244 kts 287°
2026-04-28 04:55 -34.80841 -58.90465 2953 ft 240 kts 300°
2026-04-28 04:56 -34.79619 -58.91732 2939 ft 234 kts 339°
2026-04-28 04:56 -34.78040 -58.91741 2954 ft 229 kts 19°
2026-04-28 04:56 -34.76745 -58.90636 2975 ft 234 kts 49°
2026-04-28 04:56 -34.76053 -58.88868 2970 ft 237 kts 81°
2026-04-28 04:57 -34.76100 -58.86865 2974 ft 238 kts 101°
2026-04-28 04:57 -34.76487 -58.84938 2973 ft 238 kts 106°
2026-04-28 04:57 -34.76925 -58.83009 2971 ft 236 kts 105°
2026-04-28 04:57 -34.77328 -58.81088 2974 ft 234 kts 104°
2026-04-28 04:58 -34.77698 -58.79143 2975 ft 234 kts 103°
2026-04-28 04:58 -34.78041 -58.77226 2973 ft 233 kts 102°
2026-04-28 04:58 -34.78369 -58.75339 2965 ft 224 kts 102°
2026-04-28 04:58 -34.78684 -58.73527 2960 ft 213 kts 102°
2026-04-28 04:59 -34.78984 -58.71809 2828 ft 208 kts 102°
2026-04-28 04:59 -34.79288 -58.70079 2551 ft 205 kts 102°
2026-04-28 04:59 -34.79582 -58.68410 2274 ft 199 kts 102°
2026-04-28 04:59 -34.79865 -58.66811 2012 ft 193 kts 102°
2026-04-28 05:00 -34.80145 -58.65232 1749 ft 186 kts 102°
2026-04-28 05:00 -34.80412 -58.63727 1496 ft 178 kts 102°
2026-04-28 05:00 -34.80667 -58.62294 1263 ft 171 kts 102°
2026-04-28 05:00 -34.80911 -58.60922 1039 ft 164 kts 102°
2026-04-28 05:01 -34.81147 -58.59600 825 ft 157 kts 102°
2026-04-28 05:01 -34.81376 -58.58314 610 ft 151 kts 102°
2026-04-28 05:01 -34.81593 -58.57100 404 ft 146 kts 102°
2026-04-28 05:01 -34.81805 -58.55913 208 ft 142 kts 102°
2026-04-28 05:02 -34.82011 -58.54752 79 ft 136 kts 102°
2026-04-28 05:02 -34.82187 -58.53782 81 ft 95 kts 102°
2026-04-28 05:02 -34.82286 -58.53217 81 ft 43 kts 102°
2026-04-28 05:02 -34.82330 -58.52949 81 ft 28 kts 101°
2026-04-28 05:03 -34.82309 -58.52868 81 ft 6 kts 359°
2026-04-28 05:03 -34.82258 -58.52889 80 ft 9 kts 339°
2026-04-28 05:03 -34.82177 -58.52925 79 ft 14 kts 340°
2026-04-28 05:03 -34.82068 -58.52974 78 ft 18 kts 328°
2026-04-28 05:04 -34.82009 -58.53111 80 ft 19 kts 285°
2026-04-28 05:04 -34.81979 -58.53264 81 ft 18 kts 283°
2026-04-28 05:04 -34.81950 -58.53416 82 ft 18 kts 284°
2026-04-28 05:04 -34.81919 -58.53564 84 ft 17 kts 287°
2026-04-28 05:05 -34.81851 -58.53657 87 ft 14 kts 330°
2026-04-28 05:05 -34.81768 -58.53709 90 ft 13 kts 334°
2026-04-28 05:05 -34.81689 -58.53756 92 ft 12 kts 332°
2026-04-28 05:05 -34.81621 -58.53807 95 ft 10 kts 328°
2026-04-28 05:06 -34.81556 -58.53840 96 ft 9 kts 345°
2026-04-28 05:06 -34.81507 -58.53852 97 ft 4 kts 349°
2026-04-28 05:06 -34.81500 -58.53854 97 ft 0 kts 349°